Regional Weather Roundup
Issued by NWS

Home | Current Version | Previous Version | Graphics & Text | Print | Product List | Glossary On
Versions: 1 2 3 4 5 6 7 8 9 10 11 12 13 14 15 16 17 18 19 20 21 22 23 24 25 26 27 28 29 30 31 32 33 34 35 36 37 38 39 40 41 42 43 44 45 46 47 48 49 50
781
ASUS44 KMEG 060610
RWRTN
TENNESSEE HOURLY STATE WEATHER ROUNDUP
NATIONAL WEATHER SERVICE MEMPHIS TN
1200 AM CST SAT FEB 06 2016

TNZ002-004-019-021-049-052-054-088>092-060700-
WEST TENNESSEE

CITY           SKY/WX    TMP DP  RH WIND       PRES   REMARKS
MEMPHIS INTL   PTCLDY    38  24  57 CALM      30.38S
NWS MEMPHIS      N/A     32 N/A N/A MISG        N/A
JACKSON        CLEAR     29  24  82 CALM      30.38S
DYERSBURG      CLEAR     34  25  69 CALM      30.38F
UNION CITY     CLEAR     36  25  64 CALM      30.34F
PARIS          CLEAR     30  21  69 S3        30.36S
LEXINGTON      CLEAR     28  23  80 CALM      30.36S
$$

TNZ008-025-027-028-033-062-065-066-060700-
NORTH MIDDLE TENNESSEE

CITY           SKY/WX    TMP DP  RH WIND       PRES   REMARKS
NASHVILLE      MOCLDY    36  20  52 CALM      30.38S
CLARKSVILLE    CLOUDY    32  25  75 CALM      30.36F
SMYRNA         CLOUDY    31  24  75 SE3       30.40S
COOKEVILLE     CLEAR     27  25  93 CALM      30.36R
CROSSVILLE     PTCLDY    29  15  56 SE5       30.35F WCI  24
$$

TNZ061-075-076-078-094-096-097-060700-
SOUTH MIDDLE TENNESSEE

CITY           SKY/WX    TMP DP  RH WIND       PRES   REMARKS
FAYETTEVILLE   CLEAR     34  19  55 CALM      30.36S
TULLAHOMA      CLEAR     30  21  69 CALM      30.36F
WINCHESTER     CLEAR     28  21  74 S5        30.37F WCI  23
MCMINNVILLE    CLEAR     28  25  86 CALM      30.35F
COLUMBIA       CLEAR     30  30 100 CALM      30.36R
SHELBYVILLE    CLEAR     32  25  74 CALM      30.38S
$$

TNZ017-018-042-046-047-060700-
NORTHEAST TENNESSEE

CITY           SKY/WX    TMP DP  RH WIND       PRES   REMARKS
TRI CITIES     CLOUDY    26  20  77 CALM      30.38S
$$

TNZ012-013-036-069-073-074-060700-
CENTRAL EAST TENNESSEE

CITY           SKY/WX    TMP DP  RH WIND       PRES   REMARKS
KNOXVILLE      CLOUDY    30  23  75 CALM      30.39R
OAK RIDGE      CLOUDY    30  23  75 CALM      30.41S
GATLINBURG       N/A     25  18  74 CALM      30.39S
MORRISTOWN     CLEAR     28  19  69 CALM      30.37S
$$

TNZ083-085-099-060700-
SOUTHEAST TENNESSEE

CITY           SKY/WX    TMP DP  RH WIND       PRES   REMARKS
CHATTANOOGA    CLOUDY    33  27  78 CALM      30.40S
$$

SKY/WX REPORTED AS FAIR MEANS FEW OR NO CLOUDS BELOW
12 THOUSAND FEET.





USA.gov is the U.S. government's official web portal to all federal, state and local government web resources and services.